Other Surface Observations
Issued by NWS Tucson, AZ

Home | Current Version | Previous Version | Text Only | Print | Product List | Glossary On
Versions: 1 2 3 4 5 6 7 8 9 10 11 12 13 14 15 16 17 18 19 20 21 22 23 24 25 26 27 28 29 30 31 32 33 34 35 36 37 38 39 40 41 42 43 44 45 46 47 48 49 50
000
SXUS55 KTWC 272215
OSOTWC

WEATHER ROUNDUP FOR SOUTHEAST ARIZONA
NATIONAL WEATHER SERVICE TUCSON AZ
315 PM MST MON APR 27 2015

AZZ504>506-514-272315-
LOCATION       SKY/WX    TMP DP  RH WIND       PRES   REMARKS
TUCSON         MOSUNNY   79  37  22 VRB5      29.91F
DAVIS-MONTHAN  SUNNY     77  39  25 W9        29.89F
CHILDRENS PARK N/A       77  38  25 W5                PIMA CO DEQ
ALVERNON/22ND  N/A      N/A N/A N/A N/A               PIMA CO DEQ
CHERRY/GLENN   N/A      N/A N/A N/A N/A               PIMA CO DEQ
TANGERINE      N/A       78 N/A N/A NE8               PIMA CO DEQ
CONTL RANCH    N/A       80  38  22 N7                PIMA CO DEQ
GRANT/1ST      N/A       77  38  25 NW4               PIMA CO DEQ
CRAYCROFT/22ND N/A      N/A N/A N/A N/A               PIMA CO DEQ
GOLFLINKS/KOLB N/A      N/A N/A N/A N/A               PIMA CO DEQ
AJO/12TH       N/A       77  37  24 W1                PIMA CO DEQ
SAGUARO EAST   N/A      N/A N/A N/A N/A               PIMA CO DEQ
FAIRGROUNDS    N/A       75 N/A N/A N3                PIMA CO DEQ
SAGUARO        N/A       79  37  22 S8G12             *SABINO CYN
SAN CARLOS     N/A       77  42  29 SE7G13            *SAN CARLOS
GREEN VALLEY   N/A       75  34  22 N6                PIMA CO DEQ
HORSE CAMP CYN N/A       70  40  33 S5G12             *ARAVAIPA CYN
RINCON MTNS    N/A       54  33  45 N2                *NR MANNING CAMP
$$

AZZ509>511-272315-
LOCATION       SKY/WX    TMP DP  RH WIND       PRES   REMARKS
SAFFORD        SUNNY     77  39  25 NW6       29.90F
STRAY HORSE    N/A       55  32  41 E5G14             *
TRAIL CABIN    N/A       63  32  31 E6G17             *N OF GRANVILLE
BLACK HILLS    N/A       75  43  32 W4G13             *N OF FT THOMAS
DRY LAKE       N/A       55  32  41 NE4               *NATANES MTNS
NOON CREEK     N/A       68  38  33 NE5G12            *PINALENO MTNS
COLUMBINE      N/A       50  21  31 NW4               *PINALENO MTNS
GUTHRIE        N/A       62  35  37 NE5G15            *SW OF GUTHRIE
$$

AZZ502-503-513-272315-
LOCATION       SKY/WX    TMP DP  RH WIND       PRES   REMARKS
NOGALES        SUNNY     77  29  17 NW9       29.92F
SELLS          N/A       82  31  16 N8G22             *
SASABE         N/A       76  32  20 N10G22            *ALTAR VLY
HOPKINS        N/A       60  32  35 E7G16             *SANTA RITA MTNS
CARR CYN       N/A       71  33  25 N5G11             *W OF HEREFORD
$$

AZZ507-508-512-272315-
LOCATION       SKY/WX    TMP DP  RH WIND       PRES   REMARKS
SIERRA VISTA   SUNNY     70  29  21 N15G21    29.98F
DOUGLAS        PTSUNNY   70  35  27 MISG      29.95F
EMPIRE MTNS    N/A       70  34  26 NE9G18            *LAS CIENEGAS NCA
MULESHOE RANCH N/A       70  40  33 S3G11             *PRESERVE
HEADQUARTERS   N/A       69  35  28 E5G14             *CHIRICAHUA MTNS
$$

.............................NOTES.............................
THIS IS AN AUTOMATED COLLECTIVE WITH MINIMAL QUALITY CONTROL.
PIMA CO DEQ SITES HAVE NONSTANDARD WIND SENSOR HEIGHTS.
PIMA CO DEQ SITES DO NOT REPORT WIND GUSTS.
* INDICATES WIND SENSORS LOCATED AT 20 FEET INSTEAD OF 33 FEET.
..............................KEY..............................
SKY/WX - SKY CONDITION/WEATHER
TMP    - TEMPERATURE IN FAHRENHEIT
DP     - DEWPOINT IN FAHRENHEIT
RH     - RELATIVE HUMIDITY IN PERCENT
WIND   - DIRECTION AND SPEED IN MILES PER HOUR (MPH)
VRB    - VARIABLE WIND DIRECTION
PRES   - MEAN SEA LEVEL PRESSURE IN INCHES OF MERCURY
         F - FALLING PRESSURE   R - RISING PRESSURE
         S - STEADY PRESSURE
VSB    - VISIBILITY IN MILES
HX     - HEAT INDEX IN FAHRENHEIT
WCI    - WIND CHILL INDEX IN FAHRENHEIT
N/A    - NOT AVAILABLE
AFB    - AIR FORCE BASE
         DAVIS-MONTHAN IS DAVIS-MONTHAN AIR FORCE BASE
CYN    - CANYON
MTNS   - MOUNTAINS
NCA    - NATIONAL CONSERVATION AREA
NR     - NEAR
VLY    - VALLEY
CONTL  - CONTINENTAL
PIMA CO DEQ - PIMA COUNTY DEPT OF ENVIRONMENTAL QUALITY



USA.gov is the U.S. government's official web portal to all federal, state and local government web resources and services.